Regional Weather Roundup
Issued by NWS

Home | Current Version | Previous Version | Text Only | Print | Product List | Glossary Off
Versions: 1 2 3 4 5 6 7 8 9 10 11 12 13 14 15 16 17 18 19 20 21 22 23 24 25 26 27 28 29 30 31 32 33 34 35 36 37 38 39 40 41 42 43 44 45 46 47 48 49 50

000
ASUS43 KOAX 260002
RWRNE

WEATHER ROUNDUP FOR NEBRASKA
NATIONAL WEATHER SERVICE OMAHA NE
600 PM CST THU DEC 25 2014

NOTES: SATELLITE DATA IS BEING USED TO AUGMENT CLOUD COVER ABOVE
       12000 FEET.
       "FAIR" INDICATES FEW OR NO CLOUDS BELOW 12,000 FEET WITH NO
       SIGNIFICANT WEATHER AND/OR OBSTRUCTIONS TO VISIBILITY.

  * THESE STATIONS DO NOT REPORT WEATHER SUCH AS RAIN...SNOW OR FOG.

NEZ001>004-019>022-054>056-260100-
NEBRASKA PANHANDLE

CITY           SKY/WX    TMP DP  RH WIND       PRES   REMARKS
SCOTTSBLUFF    LGT SNOW  26  22  84 N12       29.77R FOG     WCI  16
6HR MIN TEMP:  26; 6HR MAX TEMP:  30; 6HR PCP:  0.17;

ALLIANCE       LGT SNOW  26  24  92 N26G35    29.72R FOG     WCI  10
6HR MIN TEMP:  25; 6HR MAX TEMP:  29;

CHADRON        LGT SNOW  25  21  85 NE18G25   29.83R FOG     WCI  11
6HR MIN TEMP:  25; 6HR MAX TEMP:  31; 6HR PCP: TRACE;

KIMBALL        LGT SNOW  25  24  96 N18       29.68R VSB 1   WCI  11
SIDNEY         LGT SNOW  26  24  92 NE15      29.70R VSB 3/4 WCI  14
6HR MIN TEMP:  26; 6HR MAX TEMP:  32; 6HR PCP:  0.04;

$$

NEZ057>060-069>072-079>082-260100-
SOUTHWEST NEBRASKA

CITY           SKY/WX    TMP DP  RH WIND       PRES   REMARKS
NORTH PLATTE   CLOUDY    31  25  78 NE17G32   29.68R WCI  19
6HR MIN TEMP:  31; 6HR MAX TEMP:  42;

IMPERIAL       CLOUDY    31  26  82 N22G28    29.66R WCI  18
6HR MIN TEMP:  31; 6HR MAX TEMP:  42;

LEXINGTON      PTCLDY    32  28  85 N16       29.63R WCI  21
MCCOOK         PTCLDY    34  27  75 N15       29.62R WCI  24
6HR MIN TEMP:  32; 6HR MAX TEMP:  42;

OGALLALA       CLOUDY    31  28  88 NE24      29.69R WCI  17
$$

NEZ005>010-023>029-035>040-094-260100-
NORTH CENTRAL NEBRASKA

CITY           SKY/WX    TMP DP  RH WIND       PRES   REMARKS
VALENTINE      CLOUDY    28  25  88 N16G22    29.79R WCI  16
6HR MIN TEMP:  28; 6HR MAX TEMP:  32; 6HR PCP: TRACE;

AINSWORTH      LGT SNOW  28  27  97 N16G23    29.75R VSB 1   WCI  16
BROKEN BOW     CLOUDY    31  27  85 N20       29.66R WCI  19
6HR MIN TEMP:  31; 6HR MAX TEMP:  41;

O`NEILL        CLOUDY    32  31  94 N15       29.72R WCI  22
ORD            CLOUDY    32  27  81 N17       29.66R WCI  21
6HR MIN TEMP:  32; 6HR MAX TEMP:  43;

$$

NEZ041-046>049-061>064-073>077-083>087-260100-
SOUTH CENTRAL NEBRASKA

CITY           SKY/WX    TMP DP  RH WIND       PRES   REMARKS
GRAND ISLAND   CLEAR     31  24  75 N9        29.62R WCI  23
6HR MIN TEMP:  31; 6HR MAX TEMP:  45;

AURORA         PTCLDY    33  27  77 N8        29.61R WCI  26
HASTINGS       PTCLDY    33  24  69 N10       29.59R WCI  25
6HR MIN TEMP:  33; 6HR MAX TEMP:  46;

HEBRON         CLOUDY    38  28  68 CALM      29.59R
HOLDREGE       FAIR      36  25  64 N9        29.60R WCI  29
KEARNEY *      CLEAR     34  25  69 NW10      29.61R WCI  26
YORK           PTCLDY    36  28  75 N6        29.62R WCI  31
$$

NEZ011>018-030>034-042>045-260100-
NORTHEAST NEBRASKA

CITY           SKY/WX    TMP DP  RH WIND       PRES   REMARKS
NORFOLK        CLOUDY    35  31  85 N10       29.67R WCI  27
6HR MIN TEMP:  35; 6HR MAX TEMP:  42;

ALBION         CLOUDY    34  29  82 N14       29.66R WCI  25
BLAIR          CLEAR     44  32  64 E3        29.64R
COLUMBUS *     CLEAR     32  25  74 N3        29.65R
FREMONT        CLEAR     39  31  75 CALM      29.64R
TEKAMAH        CLEAR     37  32  82 E7        29.66R WCI  32
6HR MIN TEMP:  37; 6HR MAX TEMP:  47;

WAYNE          MOCLDY    32  30  92 N3        29.68R
$$

NEZ050>053-065>068-078-088>093-260100-
SOUTHEAST NEBRASKA

CITY           SKY/WX    TMP DP  RH WIND       PRES   REMARKS
LINCOLN        PTCLDY    40  29  64 CALM      29.64R
6HR MIN TEMP:  40; 6HR MAX TEMP:  51;

OMAHA EPPLEY   PTCLDY    41  31  67 SE8       29.66R
6HR MIN TEMP:  40; 6HR MAX TEMP:  49;

BEATRICE       MOCLDY    41  31  67 S5        29.62R
FALLS CITY     MOCLDY    45  32  60 SE12      29.66R
6HR MIN TEMP:  44; 6HR MAX TEMP:  53;

NEBRASKA CITY  MOCLDY    43  30  59 S10       29.65R
PLATTSMOUTH    PTCLDY    43  31  62 SE5       29.64R
$$

NEZ044-045-051>053-067-260100-
OMAHA AREA

CITY           SKY/WX    TMP DP  RH WIND       PRES   REMARKS
OMAHA EPPLEY   PTCLDY    41  31  67 SE8       29.66R
6HR MIN TEMP:  40; 6HR MAX TEMP:  49;

BLAIR          CLEAR     44  32  64 E3        29.64R
FREMONT        CLEAR     39  31  75 CALM      29.64R
MILLARD        CLEAR     40  32  73 CALM      29.64R
PLATTSMOUTH    PTCLDY    43  31  62 SE5       29.64R
WAHOO          FAIR      39  31  72 CALM      29.64R
$$



USA.gov is the U.S. government's official web portal to all federal, state and local government web resources and services.